Overview Statistics Trail Chart Weather Telemetry Raw packets
 

This is the latest recevied weather packets stored in our database for station/object K5MGY. If no packets are shown the sender has not sent any weather packets the latest 10 day(s).

<< 8 9 10 11 12 13 14 >>
Time Temp. Humidity Pressure Rain* Wind** Luminosity Snow
1788555665 38.33° C 37% 1035.5 hPa 0 mm - 122 W/m² -
1788555360 38.89° C 37% 1035.6 hPa 0 mm - 362 W/m² -
1788555057 38.33° C 37% 1035.7 hPa 0 mm - 296 W/m² -
1788554752 38.33° C 37% 1035.6 hPa 0 mm - 311 W/m² -
1788554448 38.33° C 36% 1036.1 hPa 0 mm - 123 W/m² -
1788554144 37.78° C 37% 1035.9 hPa 0 mm - 145 W/m² -
1788553840 38.89° C 36% 1036 hPa 0 mm - 580 W/m² -
1788553536 38.89° C 37% 1036.1 hPa 0 mm - 557 W/m² -
1788553232 37.78° C 39% 1035.9 hPa 0 mm - 578 W/m² -
1788552927 37.78° C 39% 1035.9 hPa 0 mm - 581 W/m² -
1788552622 37.78° C 38% 1036.4 hPa 0 mm - 584 W/m² -
1788552320 38.33° C 38% 1036.4 hPa 0 mm - 309 W/m² -
1788552016 37.78° C 38% 1036.4 hPa 0 mm - 475 W/m² -
1788551715 38.33° C 39% 1036.6 hPa 0 mm - 134 W/m² -
1788551414 37.78° C 39% 1036.5 hPa 0 mm - 259 W/m² -
1788551109 37.78° C 40% 1036.9 hPa 0 mm - 418 W/m² -
1788550804 37.78° C 40% 1036.5 hPa 0 mm - 335 W/m² -
1788550498 38.33° C 38% 1037 hPa 0 mm - 429 W/m² -
1788550194 37.78° C 39% 1037 hPa 0 mm - 230 W/m² -
1788549894 37.22° C 39% 1037.1 hPa 0 mm - 696 W/m² -
1788549591 36.67° C 42% 1037 hPa 0 mm - 664 W/m² -
1788549287 36.67° C 41% 1037.2 hPa 0 mm - 682 W/m² -
1788548983 36.11° C 42% 1037.1 hPa 0 mm - 659 W/m² -
1788548678 36.11° C 42% 1037.3 hPa 0 mm - 560 W/m² -
1788548375 36.11° C 44% 1037.4 hPa 0 mm - 453 W/m² -

* Rain latest hour (hover to see other rain measurements)
** Current wind speed in m/s (hover to see current wind gust speed)